Time,TemperatureF,DewpointF,PressureIn,WindDirection,WindDirectionDegrees,WindSpeedMPH,WindSpeedGustMPH,Humidity,HourlyPrecipIn,Conditions,Clouds,dailyrainin,SoftwareType,DateUTC
2013-05-26 00:00:00,39.9,36.6,29.60,NW,315,3.5,5.3,88,0.00,CLR,,0.90,WeatherDisplay:10.37,2013-05-26 04:00:00,
2013-05-26 00:01:00,39.9,36.6,29.60,NE,45,8.1,8.1,88,0.00,RA,,0.00,WeatherDisplay:10.37,2013-05-26 04:01:00,
2013-05-26 00:06:00,39.7,36.1,29.60,West,270,4.6,4.6,87,0.00,RA,,0.00,WeatherDisplay:10.37,2013-05-26 04:06:00,
2013-05-26 00:11:00,39.7,36.1,29.60,West,270,6.9,6.9,87,0.00,CLR,,0.00,WeatherDisplay:10.37,2013-05-26 04:11:00,
2013-05-26 00:16:00,39.7,36.1,29.60,West,270,10.4,10.4,87,0.00,CLR,,0.00,WeatherDisplay:10.37,2013-05-26 04:16:00,
2013-05-26 00:21:00,39.7,36.1,29.60,NNW,338,3.5,3.5,87,0.00,CLR,,0.00,WeatherDisplay:10.37,2013-05-26 04:21:00,
2013-05-26 00:26:00,39.7,36.1,29.60,NNE,22,6.9,6.9,87,0.00,CLR,,0.00,WeatherDisplay:10.37,2013-05-26 04:26:00,
2013-05-26 00:31:00,39.7,36.1,29.60,SSE,158,5.8,5.8,87,0.00,CLR,,0.00,WeatherDisplay:10.37,2013-05-26 04:31:00,
2013-05-26 00:36:00,39.6,36.0,29.60,SSE,158,5.8,5.8,87,0.00,CLR,,0.00,WeatherDisplay:10.37,2013-05-26 04:36:00,
2013-05-26 00:41:00,39.6,36.0,29.59,NNW,338,8.1,8.1,87,0.00,CLR,,0.00,WeatherDisplay:10.37,2013-05-26 04:41:00,
2013-05-26 00:46:00,39.6,36.0,29.59,West,270,6.9,6.9,87,0.00,CLR,,0.00,WeatherDisplay:10.37,2013-05-26 04:46:00,
2013-05-26 00:51:00,39.6,36.0,29.59,West,270,9.2,9.2,87,0.00,CLR,,0.00,WeatherDisplay:10.37,2013-05-26 04:51:00,
2013-05-26 00:56:00,39.6,36.3,29.59,South,180,4.6,4.6,88,0.00,CLR,,0.00,WeatherDisplay:10.37,2013-05-26 04:56:00,
2013-05-26 01:01:00,39.6,36.3,29.59,WNW,292,5.8,5.8,88,0.00,CLR,,0.00,WeatherDisplay:10.37,2013-05-26 05:01:00,
2013-05-26 01:06:00,39.6,36.3,29.59,WNW,292,9.2,9.2,88,0.00,CLR,,0.00,WeatherDisplay:10.37,2013-05-26 05:06:00,
2013-05-26 01:11:00,39.4,36.4,29.59,NNE,22,6.9,6.9,89,0.00,CLR,,0.00,WeatherDisplay:10.37,2013-05-26 05:11:00,
2013-05-26 01:16:00,39.4,36.4,29.59,NNW,338,3.5,3.5,89,0.00,CLR,,0.00,WeatherDisplay:10.37,2013-05-26 05:16:00,
2013-05-26 01:21:00,39.4,36.4,29.59,West,270,4.6,4.6,89,0.00,CLR,,0.00,WeatherDisplay:10.37,2013-05-26 05:21:00,
2013-05-26 01:26:00,39.2,36.5,29.58,NW,315,6.9,6.9,90,0.00,CLR,,0.00,WeatherDisplay:10.37,2013-05-26 05:26:00,
2013-05-26 01:31:00,39.2,36.8,29.58,West,270,4.6,4.6,91,0.00,CLR,,0.00,WeatherDisplay:10.37,2013-05-26 05:31:00,
2013-05-26 01:36:00,39.2,36.8,29.58,South,180,3.7,3.7,91,0.00,CLR,,0.00,WeatherDisplay:10.37,2013-05-26 05:36:00,
2013-05-26 01:41:00,39.2,36.8,29.58,West,270,4.2,4.2,91,0.00,CLR,,0.00,WeatherDisplay:10.37,2013-05-26 05:41:00,
2013-05-26 01:46:00,39.2,37.1,29.58,NNE,22,5.8,6.0,92,0.00,CLR,,0.00,WeatherDisplay:10.37,2013-05-26 05:46:00,
2013-05-26 01:51:00,39.2,37.1,29.58,NNE,22,5.8,5.8,92,0.00,CLR,,0.00,WeatherDisplay:10.37,2013-05-26 05:51:00,
2013-05-26 01:56:00,39.2,37.1,29.58,SSE,158,6.9,6.9,92,0.00,CLR,,0.00,WeatherDisplay:10.37,2013-05-26 05:56:00,
2013-05-26 02:01:00,39.2,37.1,29.58,NNE,22,4.6,4.6,92,0.00,CLR,,0.00,WeatherDisplay:10.37,2013-05-26 06:01:00,
2013-05-26 02:06:00,39.2,37.1,29.58,WNW,292,4.6,4.6,92,0.00,CLR,,0.00,WeatherDisplay:10.37,2013-05-26 06:06:00,
2013-05-26 02:11:00,39.2,37.1,29.58,South,180,5.8,5.8,92,0.00,CLR,,0.00,WeatherDisplay:10.37,2013-05-26 06:11:00,
2013-05-26 02:16:00,39.2,37.1,29.58,West,270,3.5,3.5,92,0.00,CLR,,0.00,WeatherDisplay:10.37,2013-05-26 06:16:00,
2013-05-26 02:21:00,39.2,37.1,29.58,WSW,248,3.5,3.5,92,0.00,CLR,,0.00,WeatherDisplay:10.37,2013-05-26 06:21:00,
2013-05-26 02:26:00,39.2,37.1,29.57,West,270,3.5,3.5,92,0.00,CLR,,0.00,WeatherDisplay:10.37,2013-05-26 06:26:00,
2013-05-26 02:31:00,39.2,37.1,29.57,WNW,292,5.3,5.3,92,0.00,CLR,,0.00,WeatherDisplay:10.37,2013-05-26 06:31:00,
2013-05-26 02:36:00,39.2,37.1,29.57,SSE,158,3.7,3.7,92,0.00,CLR,,0.00,WeatherDisplay:10.37,2013-05-26 06:36:00,
2013-05-26 02:42:00,39.4,37.3,29.57,South,180,5.8,5.8,92,0.00,CLR,,0.00,WeatherDisplay:10.37,2013-05-26 06:42:00,
2013-05-26 02:46:00,39.2,36.8,29.57,West,270,5.8,5.8,91,0.00,CLR,,0.00,WeatherDisplay:10.37,2013-05-26 06:46:00,
2013-05-26 02:52:00,39.2,36.8,29.57,West,270,3.7,3.7,91,0.00,CLR,,0.00,WeatherDisplay:10.37,2013-05-26 06:52:00,
2013-05-26 02:57:00,39.4,37.0,29.57,SSE,158,6.8,6.8,91,0.00,CLR,,0.00,WeatherDisplay:10.37,2013-05-26 06:57:00,
2013-05-26 03:02:00,39.4,37.0,29.57,WNW,292,6.3,6.3,91,0.00,CLR,,0.00,WeatherDisplay:10.37,2013-05-26 07:02:00,
2013-05-26 03:07:00,39.4,37.0,29.57,NNE,22,5.8,5.8,91,0.00,CLR,,0.00,WeatherDisplay:10.37,2013-05-26 07:07:00,
2013-05-26 03:12:00,39.4,37.0,29.57,WSW,248,6.9,6.9,91,0.00,CLR,,0.00,WeatherDisplay:10.37,2013-05-26 07:12:00,
2013-05-26 03:17:00,39.4,37.0,29.57,NNE,22,2.7,2.7,91,0.00,CLR,,0.00,WeatherDisplay:10.37,2013-05-26 07:17:00,
2013-05-26 03:22:00,39.4,37.0,29.57,South,180,3.5,3.5,91,0.01,RA,,0.01,WeatherDisplay:10.37,2013-05-26 07:22:00,
2013-05-26 03:27:00,39.4,37.0,29.57,West,270,3.5,3.5,91,0.01,RA,,0.01,WeatherDisplay:10.37,2013-05-26 07:27:00,
2013-05-26 03:32:00,39.4,37.0,29.57,NNE,22,1.2,1.2,91,0.02,RA,,0.02,WeatherDisplay:10.37,2013-05-26 07:32:00,
2013-05-26 03:37:00,39.4,37.3,29.57,West,270,3.5,3.5,92,0.02,RA,,0.02,WeatherDisplay:10.37,2013-05-26 07:37:00,
2013-05-26 03:42:00,39.4,37.3,29.57,NNE,22,3.7,3.7,92,0.02,CLR,,0.02,WeatherDisplay:10.37,2013-05-26 07:42:00,
2013-05-26 03:47:00,39.2,37.1,29.57,West,270,4.6,4.6,92,0.03,RA,,0.03,WeatherDisplay:10.37,2013-05-26 07:47:00,
2013-05-26 03:52:00,39.4,37.3,29.57,NW,315,4.6,4.6,92,0.03,RA,,0.03,WeatherDisplay:10.37,2013-05-26 07:52:00,
2013-05-26 03:57:00,39.4,37.3,29.57,SSE,158,2.7,2.7,92,0.03,CLR,,0.03,WeatherDisplay:10.37,2013-05-26 07:57:00,
2013-05-26 04:02:00,39.2,37.1,29.58,WNW,292,4.6,4.6,92,0.04,RA,,0.04,WeatherDisplay:10.37,2013-05-26 08:02:00,
2013-05-26 04:07:00,39.2,37.1,29.58,NW,315,4.7,4.7,92,0.04,RA,,0.04,WeatherDisplay:10.37,2013-05-26 08:07:00,
2013-05-26 04:12:00,39.2,37.1,29.58,WNW,292,2.3,2.3,92,0.04,CLR,,0.04,WeatherDisplay:10.37,2013-05-26 08:12:00,
2013-05-26 04:17:00,39.2,37.1,29.58,NW,315,5.8,5.8,92,0.04,CLR,,0.04,WeatherDisplay:10.37,2013-05-26 08:17:00,
2013-05-26 04:22:00,39.2,37.1,29.58,WNW,292,3.5,3.5,92,0.03,CLR,,0.04,WeatherDisplay:10.37,2013-05-26 08:22:00,
2013-05-26 04:27:00,39.2,37.1,29.58,NNW,338,5.8,5.8,92,0.04,RA,,0.05,WeatherDisplay:10.37,2013-05-26 08:27:00,
2013-05-26 04:32:00,39.2,37.1,29.58,NE,45,6.9,6.9,92,0.03,RA,,0.05,WeatherDisplay:10.37,2013-05-26 08:32:00,
2013-05-26 04:37:00,39.2,37.1,29.58,NNE,22,5.8,5.8,92,0.03,CLR,,0.05,WeatherDisplay:10.37,2013-05-26 08:37:00,
2013-05-26 04:42:00,39.4,37.5,29.58,West,270,8.1,8.1,93,0.04,RA,,0.06,WeatherDisplay:10.37,2013-05-26 08:42:00,
2013-05-26 04:47:00,39.4,37.5,29.58,NNE,22,2.3,2.3,93,0.03,RA,,0.06,WeatherDisplay:10.37,2013-05-26 08:47:00,
2013-05-26 04:52:00,39.4,37.5,29.58,NNE,22,5.8,5.8,93,0.03,,,0.06,WeatherDisplay:10.37,2013-05-26 08:52:00,
2013-05-26 04:57:00,39.4,37.5,29.58,NNW,338,3.5,3.5,93,0.04,RA,,0.07,WeatherDisplay:10.37,2013-05-26 08:57:00,
2013-05-26 05:02:00,39.4,37.5,29.59,NNE,22,4.6,4.6,93,0.03,RA,,0.07,WeatherDisplay:10.37,2013-05-26 09:02:00,
2013-05-26 05:07:00,39.4,37.5,29.59,NW,315,6.9,6.9,93,0.04,RA,,0.08,WeatherDisplay:10.37,2013-05-26 09:07:00,
2013-05-26 05:12:00,39.4,37.5,29.59,WSW,248,3.7,3.7,93,0.04,RA,,0.08,WeatherDisplay:10.37,2013-05-26 09:12:00,
2013-05-26 05:17:00,39.4,37.5,29.59,NNE,22,4.6,4.6,93,0.05,RA,,0.09,WeatherDisplay:10.37,2013-05-26 09:17:00,
2013-05-26 05:22:00,39.4,37.5,29.59,South,180,6.9,6.9,93,0.06,RA,,0.10,WeatherDisplay:10.37,2013-05-26 09:22:00,
2013-05-26 05:27:00,39.4,37.5,29.59,NNE,22,6.9,6.9,93,0.05,RA,,0.10,WeatherDisplay:10.37,2013-05-26 09:27:00,
2013-05-26 05:32:00,39.4,37.5,29.59,NW,315,4.6,4.6,93,0.06,RA,,0.11,WeatherDisplay:10.37,2013-05-26 09:32:00,
2013-05-26 05:37:00,39.4,37.5,29.59,NW,315,3.7,3.7,93,0.06,RA,,0.11,WeatherDisplay:10.37,2013-05-26 09:37:00,
2013-05-26 05:42:00,39.4,37.5,29.59,NNW,338,9.2,9.2,93,0.06,RA,,0.12,WeatherDisplay:10.37,2013-05-26 09:42:00,
2013-05-26 05:47:00,39.4,37.5,29.59,NNE,22,4.7,4.7,93,0.06,RA,,0.12,WeatherDisplay:10.37,2013-05-26 09:47:00,
2013-05-26 05:52:00,39.4,37.5,29.60,NE,45,5.8,5.8,93,0.07,RA,,0.13,WeatherDisplay:10.37,2013-05-26 09:52:00,
2013-05-26 05:57:00,39.4,37.5,29.60,NE,45,3.7,3.7,93,0.06,RA,,0.13,WeatherDisplay:10.37,2013-05-26 09:57:00,
2013-05-26 06:02:00,39.6,37.7,29.60,NW,315,5.8,5.8,93,0.06,,,0.13,WeatherDisplay:10.37,2013-05-26 10:02:00,
2013-05-26 06:07:00,39.6,37.7,29.60,NE,45,2.3,2.3,93,0.06,RA,,0.14,WeatherDisplay:10.37,2013-05-26 10:07:00,
2013-05-26 06:12:00,39.6,37.7,29.60,West,270,2.7,2.7,93,0.06,RA,,0.14,WeatherDisplay:10.37,2013-05-26 10:12:00,
2013-05-26 06:17:00,39.6,37.7,29.61,WNW,292,5.8,5.8,93,0.05,CLR,,0.14,WeatherDisplay:10.37,2013-05-26 10:17:00,
2013-05-26 06:22:00,39.6,37.7,29.61,West,270,4.2,4.2,93,0.04,CLR,,0.14,WeatherDisplay:10.37,2013-05-26 10:22:00,
2013-05-26 06:27:00,39.7,37.8,29.61,NW,315,2.7,2.7,93,0.05,RA,,0.15,WeatherDisplay:10.37,2013-05-26 10:27:00,
2013-05-26 06:32:00,39.7,37.8,29.61,SSE,158,3.5,3.5,93,0.04,RA,,0.15,WeatherDisplay:10.37,2013-05-26 10:32:00,
2013-05-26 06:37:00,39.9,38.0,29.61,WNW,292,5.8,5.8,93,0.05,RA,,0.16,WeatherDisplay:10.37,2013-05-26 10:37:00,
2013-05-26 06:42:00,39.9,38.0,29.61,NNE,22,6.9,6.9,93,0.04,RA,,0.16,WeatherDisplay:10.37,2013-05-26 10:42:00,
2013-05-26 06:47:00,40.1,38.2,29.61,West,270,4.6,4.6,93,0.05,RA,,0.17,WeatherDisplay:10.37,2013-05-26 10:47:00,
2013-05-26 06:52:00,39.9,38.0,29.62,NW,315,8.3,8.3,93,0.04,RA,,0.17,WeatherDisplay:10.37,2013-05-26 10:52:00,
2013-05-26 06:57:00,40.1,38.2,29.62,NE,45,4.2,4.2,93,0.04,,,0.17,WeatherDisplay:10.37,2013-05-26 10:57:00,
2013-05-26 07:02:00,40.1,38.2,29.62,NW,315,6.3,6.3,93,0.04,CLR,,0.17,WeatherDisplay:10.37,2013-05-26 11:02:00,
2013-05-26 07:07:00,40.1,38.2,29.62,West,270,2.7,2.7,93,0.04,RA,,0.18,WeatherDisplay:10.37,2013-05-26 11:07:00,
2013-05-26 07:12:00,40.1,38.2,29.62,NW,315,5.3,5.3,93,0.04,RA,,0.18,WeatherDisplay:10.37,2013-05-26 11:12:00,
2013-05-26 07:17:00,40.1,38.2,29.62,South,180,5.8,5.8,93,0.04,,,0.18,WeatherDisplay:10.37,2013-05-26 11:17:00,
2013-05-26 07:22:00,40.3,38.4,29.62,WNW,292,4.6,4.6,93,0.05,RA,,0.19,WeatherDisplay:10.37,2013-05-26 11:22:00,
2013-05-26 07:27:00,40.5,38.6,29.63,South,180,5.8,5.8,93,0.04,RA,,0.19,WeatherDisplay:10.37,2013-05-26 11:27:00,
2013-05-26 07:32:00,40.6,38.5,29.63,NW,315,5.8,5.8,92,0.04,,,0.19,WeatherDisplay:10.37,2013-05-26 11:32:00,
2013-05-26 07:37:00,40.8,38.7,29.63,NE,45,5.8,5.8,92,0.03,CLR,,0.19,WeatherDisplay:10.37,2013-05-26 11:37:00,
2013-05-26 07:42:00,41.0,38.9,29.63,NE,45,3.5,3.5,92,0.03,CLR,,0.19,WeatherDisplay:10.37,2013-05-26 11:42:00,
2013-05-26 07:47:00,41.2,39.1,29.63,NW,315,6.3,6.3,92,0.02,CLR,,0.19,WeatherDisplay:10.37,2013-05-26 11:47:00,
2013-05-26 07:52:00,41.5,39.3,29.64,East,90,4.6,4.6,92,0.02,CLR,,0.19,WeatherDisplay:10.37,2013-05-26 11:52:00,
2013-05-26 07:57:00,41.7,39.3,29.64,West,270,3.5,3.5,91,0.02,CLR,,0.19,WeatherDisplay:10.37,2013-05-26 11:57:00,
2013-05-26 08:02:00,41.7,39.0,29.64,West,270,10.4,10.4,90,0.02,CLR,,0.19,WeatherDisplay:10.37,2013-05-26 12:02:00,
2013-05-26 08:07:00,41.9,39.2,29.64,West,270,6.9,6.9,90,0.01,CLR,,0.19,WeatherDisplay:10.37,2013-05-26 12:07:00,
2013-05-26 08:12:00,42.1,39.4,29.64,West,270,7.3,7.3,90,0.01,CLR,,0.19,WeatherDisplay:10.37,2013-05-26 12:12:00,
2013-05-26 08:17:00,42.1,39.1,29.65,West,270,5.8,5.8,89,0.01,CLR,,0.19,WeatherDisplay:10.37,2013-05-26 12:17:00,
2013-05-26 08:22:00,42.4,39.4,29.65,NE,45,2.3,2.3,89,0.00,CLR,,0.19,WeatherDisplay:10.37,2013-05-26 12:22:00,
2013-05-26 08:27:00,42.4,39.1,29.65,West,270,5.8,5.8,88,0.00,CLR,,0.19,WeatherDisplay:10.37,2013-05-26 12:27:00,
2013-05-26 08:32:00,42.8,39.5,29.65,West,270,3.5,3.5,88,0.00,CLR,,0.19,WeatherDisplay:10.37,2013-05-26 12:32:00,
2013-05-26 08:38:00,43.0,39.7,29.66,East,90,3.5,3.5,88,0.00,CLR,,0.19,WeatherDisplay:10.37,2013-05-26 12:38:00,
2013-05-26 08:43:00,43.0,39.7,29.66,WNW,292,3.7,3.7,88,0.00,CLR,,0.19,WeatherDisplay:10.37,2013-05-26 12:43:00,
2013-05-26 08:48:00,43.3,40.0,29.66,NNE,22,4.6,4.6,88,0.00,CLR,,0.19,WeatherDisplay:10.37,2013-05-26 12:48:00,
2013-05-26 08:53:00,43.7,40.1,29.66,WNW,292,6.9,6.9,87,0.00,CLR,,0.19,WeatherDisplay:10.37,2013-05-26 12:53:00,
2013-05-26 08:58:00,43.5,39.6,29.66,NW,315,5.8,5.8,86,0.00,CLR,,0.19,WeatherDisplay:10.37,2013-05-26 12:58:00,
2013-05-26 09:03:00,43.9,40.0,29.66,WSW,248,2.3,2.3,86,0.00,CLR,,0.19,WeatherDisplay:10.37,2013-05-26 13:03:00,
2013-05-26 09:08:00,44.2,40.3,29.66,NE,45,4.6,4.6,86,0.00,CLR,,0.19,WeatherDisplay:10.37,2013-05-26 13:08:00,
2013-05-26 09:13:00,44.4,40.5,29.66,SSE,158,5.8,5.8,86,0.00,CLR,,0.19,WeatherDisplay:10.37,2013-05-26 13:13:00,
2013-05-26 09:18:00,44.4,39.9,29.67,NE,45,5.8,5.8,84,0.00,CLR,,0.19,WeatherDisplay:10.37,2013-05-26 13:18:00,
2013-05-26 09:23:00,44.8,40.3,29.67,NE,45,2.3,2.3,84,0.00,CLR,,0.19,WeatherDisplay:10.37,2013-05-26 13:23:00,
2013-05-26 09:28:00,45.1,40.6,29.67,West,270,4.6,4.6,84,0.00,CLR,,0.19,WeatherDisplay:10.37,2013-05-26 13:28:00,
2013-05-26 09:33:00,45.3,40.7,29.67,WNW,292,2.3,2.3,84,0.00,CLR,,0.19,WeatherDisplay:10.37,2013-05-26 13:33:00,
2013-05-26 09:38:00,45.1,40.2,29.67,South,180,4.6,4.6,83,0.00,CLR,,0.19,WeatherDisplay:10.37,2013-05-26 13:38:00,
2013-05-26 09:43:00,45.0,39.8,29.67,West,270,3.5,3.5,82,0.00,CLR,,0.19,WeatherDisplay:10.37,2013-05-26 13:43:00,
2013-05-26 09:48:00,45.1,39.6,29.67,West,270,4.6,4.6,81,0.00,CLR,,0.19,WeatherDisplay:10.37,2013-05-26 13:48:00,
2013-05-26 09:53:00,45.3,39.5,29.67,ENE,68,4.6,4.6,80,0.00,CLR,,0.19,WeatherDisplay:10.37,2013-05-26 13:53:00,
2013-05-26 09:58:00,45.9,40.1,29.67,WNW,292,4.6,4.6,80,0.00,CLR,,0.19,WeatherDisplay:10.37,2013-05-26 13:58:00,
2013-05-26 10:03:00,47.3,40.5,29.67,WSW,248,4.6,4.6,77,0.00,CLR,,0.19,WeatherDisplay:10.37,2013-05-26 14:03:00,
2013-05-26 10:08:00,48.2,41.0,29.67,NNE,22,6.9,6.9,76,0.00,CLR,,0.19,WeatherDisplay:10.37,2013-05-26 14:08:00,
2013-05-26 10:13:00,48.7,41.1,29.67,NNE,22,6.9,6.9,75,0.00,CLR,,0.19,WeatherDisplay:10.37,2013-05-26 14:13:00,
2013-05-26 10:18:00,48.7,40.4,29.68,NNE,22,4.6,4.6,73,0.00,CLR,,0.19,WeatherDisplay:10.37,2013-05-26 14:18:00,
2013-05-26 10:23:00,48.9,40.3,29.68,NE,45,6.9,6.9,72,0.00,CLR,,0.19,WeatherDisplay:10.37,2013-05-26 14:23:00,
2013-05-26 10:28:00,49.1,39.7,29.68,NW,315,5.8,5.8,70,0.00,CLR,,0.19,WeatherDisplay:10.37,2013-05-26 14:28:00,
2013-05-26 10:33:00,50.2,40.0,29.68,NE,45,6.9,6.9,68,0.01,RA,,0.20,WeatherDisplay:10.37,2013-05-26 14:33:00,
2013-05-26 10:38:00,51.1,39.3,29.69,West,270,10.4,10.4,64,0.01,RA,,0.20,WeatherDisplay:10.37,2013-05-26 14:38:00,
2013-05-26 10:43:00,51.3,39.5,29.69,NNE,22,8.1,8.1,64,0.01,,,0.20,WeatherDisplay:10.37,2013-05-26 14:43:00,
2013-05-26 10:48:00,53.1,41.2,29.69,WNW,292,4.6,4.6,64,0.01,CLR,,0.20,WeatherDisplay:10.37,2013-05-26 14:48:00,
2013-05-26 10:53:00,52.7,40.5,29.68,NE,45,9.4,9.4,63,0.01,CLR,,0.20,WeatherDisplay:10.37,2013-05-26 14:53:00,
2013-05-26 10:58:00,52.3,38.0,29.68,WNW,292,9.4,9.4,58,0.01,CLR,,0.20,WeatherDisplay:10.37,2013-05-26 14:58:00,
2013-05-26 11:03:00,53.2,38.8,29.68,West,270,8.1,8.1,58,0.01,CLR,,0.20,WeatherDisplay:10.37,2013-05-26 15:03:00,
2013-05-26 11:08:00,54.1,39.2,29.68,NNE,22,5.8,5.8,57,0.01,CLR,,0.20,WeatherDisplay:10.37,2013-05-26 15:08:00,
2013-05-26 11:13:00,52.9,38.1,29.68,NNE,22,4.6,4.6,57,0.01,CLR,,0.20,WeatherDisplay:10.37,2013-05-26 15:13:00,
2013-05-26 11:18:00,54.3,39.4,29.69,ESE,112,5.8,5.8,57,0.01,CLR,,0.20,WeatherDisplay:10.37,2013-05-26 15:18:00,
2013-05-26 11:23:00,54.7,38.8,29.69,WNW,292,5.3,5.3,55,0.01,CLR,,0.20,WeatherDisplay:10.37,2013-05-26 15:23:00,
2013-05-26 11:28:00,55.6,40.1,29.69,South,180,5.8,5.8,56,0.01,CLR,,0.20,WeatherDisplay:10.37,2013-05-26 15:28:00,
2013-05-26 11:33:00,54.9,38.1,29.69,NNE,22,9.2,9.2,53,0.00,CLR,,0.20,WeatherDisplay:10.37,2013-05-26 15:33:00,
2013-05-26 11:38:00,54.9,38.1,29.70,NE,45,5.8,5.8,53,0.00,CLR,,0.20,WeatherDisplay:10.37,2013-05-26 15:38:00,
2013-05-26 11:43:00,54.5,38.7,29.70,West,270,3.5,3.5,55,0.00,CLR,,0.20,WeatherDisplay:10.37,2013-05-26 15:43:00,
2013-05-26 11:48:00,54.5,38.7,29.70,SE,135,6.9,6.9,55,0.00,CLR,,0.20,WeatherDisplay:10.37,2013-05-26 15:48:00,
2013-05-26 11:53:00,53.6,38.3,29.70,NNE,22,3.5,3.5,56,0.00,CLR,,0.20,WeatherDisplay:10.37,2013-05-26 15:53:00,
2013-05-26 11:58:00,54.0,38.6,29.70,ENE,68,5.3,5.3,56,0.00,CLR,,0.20,WeatherDisplay:10.37,2013-05-26 15:58:00,
2013-05-26 12:03:00,54.3,38.9,29.70,NE,45,9.2,9.2,56,0.00,CLR,,0.20,WeatherDisplay:10.37,2013-05-26 16:03:00,
2013-05-26 12:08:00,55.8,38.9,29.70,NNE,22,7.8,7.8,53,0.00,CLR,,0.20,WeatherDisplay:10.37,2013-05-26 16:08:00,
2013-05-26 12:13:00,55.8,38.9,29.71,ENE,68,6.9,6.9,53,0.00,CLR,,0.20,WeatherDisplay:10.37,2013-05-26 16:13:00,
2013-05-26 12:18:00,55.8,39.4,29.71,NE,45,5.8,5.8,54,0.00,CLR,,0.20,WeatherDisplay:10.37,2013-05-26 16:18:00,
2013-05-26 12:23:00,55.6,39.2,29.71,West,270,10.4,10.4,54,0.00,CLR,,0.20,WeatherDisplay:10.37,2013-05-26 16:23:00,
2013-05-26 12:28:00,54.5,37.7,29.70,NNE,22,9.2,9.2,53,0.00,CLR,,0.20,WeatherDisplay:10.37,2013-05-26 16:28:00,
2013-05-26 12:33:00,56.3,38.9,29.70,ENE,68,11.5,11.5,52,0.00,CLR,,0.20,WeatherDisplay:10.37,2013-05-26 16:33:00,
2013-05-26 12:38:00,55.0,38.2,29.71,NE,45,5.8,5.8,53,0.00,CLR,,0.20,WeatherDisplay:10.37,2013-05-26 16:38:00,
2013-05-26 12:43:00,56.5,40.0,29.71,ENE,68,7.8,7.8,54,0.00,CLR,,0.20,WeatherDisplay:10.37,2013-05-26 16:43:00,
2013-05-26 12:48:00,55.4,38.5,29.71,NNE,22,5.8,5.8,53,0.00,CLR,,0.20,WeatherDisplay:10.37,2013-05-26 16:48:00,
2013-05-26 12:53:00,55.4,38.1,29.72,WNW,292,9.2,9.2,52,0.00,CLR,,0.20,WeatherDisplay:10.37,2013-05-26 16:53:00,
2013-05-26 12:58:00,56.8,38.9,29.72,SSE,158,9.2,9.2,51,0.00,CLR,,0.20,WeatherDisplay:10.37,2013-05-26 16:58:00,
2013-05-26 13:03:00,56.8,39.4,29.71,West,270,8.3,8.3,52,0.00,CLR,,0.20,WeatherDisplay:10.37,2013-05-26 17:03:00,
2013-05-26 13:09:00,57.6,39.6,29.71,NNE,22,6.9,6.9,51,0.00,CLR,,0.20,WeatherDisplay:10.37,2013-05-26 17:09:00,
2013-05-26 13:14:00,57.0,39.0,29.72,NNE,22,6.3,6.3,51,0.00,CLR,,0.20,WeatherDisplay:10.37,2013-05-26 17:14:00,
2013-05-26 13:19:00,58.5,41.4,29.72,West,270,5.3,5.3,53,0.00,CLR,,0.20,WeatherDisplay:10.37,2013-05-26 17:19:00,
2013-05-26 13:24:00,57.6,39.6,29.72,West,270,5.8,5.8,51,0.00,CLR,,0.20,WeatherDisplay:10.37,2013-05-26 17:24:00,
2013-05-26 13:29:00,57.9,39.9,29.72,NE,45,10.4,10.4,51,0.00,CLR,,0.20,WeatherDisplay:10.37,2013-05-26 17:29:00,
2013-05-26 13:34:00,57.2,40.7,29.72,WNW,292,10.4,10.4,54,0.00,CLR,,0.20,WeatherDisplay:10.37,2013-05-26 17:34:00,
2013-05-26 13:39:00,56.7,40.2,29.73,NNE,22,8.1,8.1,54,0.00,CLR,,0.20,WeatherDisplay:10.37,2013-05-26 17:39:00,
2013-05-26 13:44:00,55.8,38.9,29.73,South,180,8.1,8.1,53,0.00,CLR,,0.20,WeatherDisplay:10.37,2013-05-26 17:44:00,
2013-05-26 13:49:00,56.1,39.7,29.73,NNE,22,6.9,6.9,54,0.00,CLR,,0.20,WeatherDisplay:10.37,2013-05-26 17:49:00,
2013-05-26 13:54:00,56.7,39.3,29.73,NNE,22,11.5,11.5,52,0.00,CLR,,0.20,WeatherDisplay:10.37,2013-05-26 17:54:00,
2013-05-26 13:59:00,57.9,39.9,29.73,ENE,68,10.4,10.4,51,0.00,CLR,,0.20,WeatherDisplay:10.37,2013-05-26 17:59:00,
2013-05-26 14:04:00,56.5,39.1,29.74,NE,45,3.5,3.5,52,0.00,CLR,,0.20,WeatherDisplay:10.37,2013-05-26 18:04:00,
2013-05-26 14:09:00,57.2,40.2,29.74,SSE,158,5.3,5.3,53,0.00,CLR,,0.20,WeatherDisplay:10.37,2013-05-26 18:09:00,
2013-05-26 14:14:00,57.0,39.5,29.74,West,270,10.4,10.4,52,0.00,CLR,,0.20,WeatherDisplay:10.37,2013-05-26 18:14:00,
2013-05-26 14:19:00,56.3,38.9,29.74,WNW,292,4.6,4.6,52,0.00,CLR,,0.20,WeatherDisplay:10.37,2013-05-26 18:19:00,
2013-05-26 14:24:00,57.4,39.9,29.74,ENE,68,4.7,4.7,52,0.00,CLR,,0.20,WeatherDisplay:10.37,2013-05-26 18:24:00,
2013-05-26 14:29:00,58.1,40.6,29.74,NNE,22,4.6,4.6,52,0.00,CLR,,0.20,WeatherDisplay:10.37,2013-05-26 18:29:00,
2013-05-26 14:34:00,58.1,40.6,29.74,NNE,22,5.8,5.8,52,0.00,CLR,,0.20,WeatherDisplay:10.37,2013-05-26 18:34:00,
2013-05-26 14:39:00,57.9,39.9,29.74,NE,45,4.6,4.6,51,0.00,CLR,,0.20,WeatherDisplay:10.37,2013-05-26 18:39:00,
2013-05-26 14:44:00,58.5,40.4,29.74,West,270,5.8,5.8,51,0.00,CLR,,0.20,WeatherDisplay:10.37,2013-05-26 18:44:00,
2013-05-26 14:49:00,58.1,40.1,29.74,NE,45,11.5,11.5,51,0.00,CLR,,0.20,WeatherDisplay:10.37,2013-05-26 18:49:00,
2013-05-26 14:54:00,57.7,40.2,29.75,ENE,68,6.9,6.9,52,0.00,CLR,,0.20,WeatherDisplay:10.37,2013-05-26 18:54:00,
2013-05-26 14:59:00,56.5,39.6,29.75,NNE,22,8.3,8.3,53,0.00,CLR,,0.20,WeatherDisplay:10.37,2013-05-26 18:59:00,
2013-05-26 15:04:00,55.9,39.0,29.75,NNE,22,6.8,6.8,53,0.00,CLR,,0.20,WeatherDisplay:10.37,2013-05-26 19:04:00,
2013-05-26 15:09:00,55.9,39.5,29.75,South,180,6.8,6.8,54,0.00,CLR,,0.20,WeatherDisplay:10.37,2013-05-26 19:09:00,
2013-05-26 15:14:00,55.9,39.5,29.76,NE,45,4.6,4.6,54,0.00,CLR,,0.20,WeatherDisplay:10.37,2013-05-26 19:14:00,
2013-05-26 15:19:00,55.8,38.9,29.76,ENE,68,9.2,9.2,53,0.00,CLR,,0.20,WeatherDisplay:10.37,2013-05-26 19:19:00,
2013-05-26 15:24:00,55.6,39.7,29.76,NE,45,9.2,9.2,55,0.00,CLR,,0.20,WeatherDisplay:10.37,2013-05-26 19:24:00,
2013-05-26 15:29:00,54.1,40.5,29.77,West,270,5.3,5.3,60,0.00,CLR,,0.20,WeatherDisplay:10.37,2013-05-26 19:29:00,
2013-05-26 15:34:00,53.2,40.5,29.77,NE,45,5.8,5.8,62,0.00,CLR,,0.20,WeatherDisplay:10.37,2013-05-26 19:34:00,
2013-05-26 15:39:00,53.4,40.3,29.77,WNW,292,7.3,7.3,61,0.00,CLR,,0.20,WeatherDisplay:10.37,2013-05-26 19:39:00,
2013-05-26 15:44:00,53.6,39.6,29.77,East,90,3.5,3.5,59,0.00,CLR,,0.20,WeatherDisplay:10.37,2013-05-26 19:44:00,
2013-05-26 15:49:00,54.1,37.8,29.77,NE,45,6.8,6.8,54,0.00,CLR,,0.20,WeatherDisplay:10.37,2013-05-26 19:49:00,
2013-05-26 15:54:00,54.5,38.7,29.78,East,90,6.9,6.9,55,0.00,CLR,,0.20,WeatherDisplay:10.37,2013-05-26 19:54:00,
2013-05-26 15:59:00,55.0,39.6,29.78,NNE,22,6.9,6.9,56,0.00,CLR,,0.20,WeatherDisplay:10.37,2013-05-26 19:59:00,
2013-05-26 16:04:00,55.4,38.5,29.78,WSW,248,5.8,5.8,53,0.00,CLR,,0.20,WeatherDisplay:10.37,2013-05-26 20:04:00,
2013-05-26 16:09:00,55.0,37.7,29.78,ENE,68,5.8,5.8,52,0.00,CLR,,0.20,WeatherDisplay:10.37,2013-05-26 20:09:00,
2013-05-26 16:14:00,55.2,37.9,29.79,WNW,292,6.8,6.8,52,0.00,CLR,,0.20,WeatherDisplay:10.37,2013-05-26 20:14:00,
2013-05-26 16:19:00,55.4,37.6,29.79,NNE,22,10.4,10.4,51,0.00,CLR,,0.20,WeatherDisplay:10.37,2013-05-26 20:19:00,
2013-05-26 16:24:00,55.2,37.9,29.79,NE,45,4.7,4.7,52,0.00,CLR,,0.20,WeatherDisplay:10.37,2013-05-26 20:24:00,
2013-05-26 16:29:00,55.4,38.5,29.79,NNE,22,9.4,9.4,53,0.00,CLR,,0.20,WeatherDisplay:10.37,2013-05-26 20:29:00,
2013-05-26 16:34:00,55.4,38.1,29.79,NE,45,5.8,5.8,52,0.00,CLR,,0.20,WeatherDisplay:10.37,2013-05-26 20:34:00,
2013-05-26 16:39:00,55.2,37.9,29.80,ENE,68,6.3,6.3,52,0.00,CLR,,0.20,WeatherDisplay:10.37,2013-05-26 20:39:00,
2013-05-26 16:44:00,55.2,37.9,29.80,South,180,5.8,5.8,52,0.00,CLR,,0.20,WeatherDisplay:10.37,2013-05-26 20:44:00,
2013-05-26 16:49:00,55.4,38.1,29.80,West,270,8.1,8.1,52,0.00,CLR,,0.20,WeatherDisplay:10.37,2013-05-26 20:49:00,
2013-05-26 16:54:00,54.9,38.1,29.80,ENE,68,10.4,10.4,53,0.00,CLR,,0.20,WeatherDisplay:10.37,2013-05-26 20:54:00,
2013-05-26 16:59:00,55.0,38.2,29.80,SSE,158,7.8,7.8,53,0.00,CLR,,0.20,WeatherDisplay:10.37,2013-05-26 20:59:00,
2013-05-26 17:04:00,55.6,38.7,29.80,NE,45,5.8,5.8,53,0.00,CLR,,0.20,WeatherDisplay:10.37,2013-05-26 21:04:00,
2013-05-26 17:09:00,55.9,38.5,29.80,ENE,68,9.2,9.2,52,0.00,CLR,,0.20,WeatherDisplay:10.37,2013-05-26 21:09:00,
2013-05-26 17:14:00,56.8,39.4,29.81,NE,45,5.8,5.8,52,0.00,CLR,,0.20,WeatherDisplay:10.37,2013-05-26 21:14:00,
2013-05-26 17:19:00,56.5,39.1,29.81,ENE,68,8.1,8.1,52,0.00,CLR,,0.20,WeatherDisplay:10.37,2013-05-26 21:19:00,
2013-05-26 17:24:00,55.8,38.9,29.81,ENE,68,5.8,5.8,53,0.00,CLR,,0.20,WeatherDisplay:10.37,2013-05-26 21:24:00,
2013-05-26 17:29:00,56.1,39.2,29.82,ENE,68,4.7,4.7,53,0.00,CLR,,0.20,WeatherDisplay:10.37,2013-05-26 21:29:00,
2013-05-26 17:34:00,56.1,39.2,29.82,NE,45,5.8,5.8,53,0.00,CLR,,0.20,WeatherDisplay:10.37,2013-05-26 21:34:00,
2013-05-26 17:39:00,55.9,39.0,29.82,WNW,292,3.5,3.5,53,0.00,CLR,,0.20,WeatherDisplay:10.37,2013-05-26 21:39:00,
2013-05-26 17:44:00,55.9,39.0,29.82,West,270,9.2,9.2,53,0.00,CLR,,0.20,WeatherDisplay:10.37,2013-05-26 21:44:00,
2013-05-26 17:49:00,55.9,39.0,29.82,WNW,292,8.8,8.8,53,0.00,CLR,,0.20,WeatherDisplay:10.37,2013-05-26 21:49:00,
2013-05-26 17:54:00,55.2,38.4,29.82,NE,45,8.1,8.1,53,0.00,CLR,,0.20,WeatherDisplay:10.37,2013-05-26 21:54:00,
2013-05-26 17:59:00,55.8,38.9,29.82,NE,45,6.9,6.9,53,0.00,CLR,,0.20,WeatherDisplay:10.37,2013-05-26 21:59:00,
2013-05-26 18:04:00,55.6,39.2,29.83,WNW,292,8.1,8.1,54,0.00,CLR,,0.20,WeatherDisplay:10.37,2013-05-26 22:04:00,
2013-05-26 18:09:00,55.6,39.2,29.83,NNE,22,3.5,3.5,54,0.00,CLR,,0.20,WeatherDisplay:10.37,2013-05-26 22:09:00,
2013-05-26 18:14:00,55.2,38.8,29.84,WSW,248,3.5,3.5,54,0.00,CLR,,0.20,WeatherDisplay:10.37,2013-05-26 22:14:00,
2013-05-26 18:19:00,55.0,39.1,29.84,SSE,158,4.2,4.2,55,0.00,CLR,,0.20,WeatherDisplay:10.37,2013-05-26 22:19:00,
2013-05-26 18:24:00,54.9,39.5,29.84,NNE,22,8.1,8.1,56,0.00,CLR,,0.20,WeatherDisplay:10.37,2013-05-26 22:24:00,
2013-05-26 18:29:00,54.9,38.6,29.85,WNW,292,6.3,6.3,54,0.00,CLR,,0.20,WeatherDisplay:10.37,2013-05-26 22:29:00,
2013-05-26 18:34:00,54.9,39.0,29.85,WNW,292,3.5,3.5,55,0.00,CLR,,0.20,WeatherDisplay:10.37,2013-05-26 22:34:00,
2013-05-26 18:39:00,55.0,39.1,29.85,West,270,4.7,4.7,55,0.00,CLR,,0.20,WeatherDisplay:10.37,2013-05-26 22:39:00,
2013-05-26 18:44:00,54.9,39.0,29.85,NNE,22,4.6,4.6,55,0.00,CLR,,0.20,WeatherDisplay:10.37,2013-05-26 22:44:00,
2013-05-26 18:50:00,54.9,39.0,29.85,NE,45,4.6,4.6,55,0.00,CLR,,0.20,WeatherDisplay:10.37,2013-05-26 22:50:00,
2013-05-26 18:55:00,54.9,39.0,29.85,WNW,292,9.2,9.2,55,0.00,CLR,,0.20,WeatherDisplay:10.37,2013-05-26 22:55:00,
2013-05-26 19:00:00,54.9,39.0,29.85,NNE,22,6.9,6.9,55,0.00,CLR,,0.20,WeatherDisplay:10.37,2013-05-26 23:00:00,
2013-05-26 19:05:00,54.5,39.1,29.86,NNE,22,5.8,5.8,56,0.00,CLR,,0.20,WeatherDisplay:10.37,2013-05-26 23:05:00,
2013-05-26 19:10:00,54.1,38.3,29.86,NE,45,5.8,5.8,55,0.00,CLR,,0.20,WeatherDisplay:10.37,2013-05-26 23:10:00,
2013-05-26 19:15:00,54.0,38.6,29.86,SE,141,3.0,7.0,56,0.00,CLR,,0.20,WeatherDisplay:10.37,2013-05-26 23:15:00,
2013-05-26 19:20:00,53.8,38.9,29.86,WSW,249,3.0,6.0,57,0.00,CLR,,0.20,WeatherDisplay:10.37,2013-05-26 23:20:00,
2013-05-26 19:25:00,53.4,38.5,29.86,West,270,5.8,5.8,57,0.00,CLR,,0.20,WeatherDisplay:10.37,2013-05-26 23:25:00,
2013-05-26 19:30:00,53.2,38.4,29.87,WNW,292,3.5,3.5,57,0.00,CLR,,0.20,WeatherDisplay:10.37,2013-05-26 23:30:00,
2013-05-26 19:35:00,52.9,38.1,29.87,NW,322,6.0,7.0,57,0.00,CLR,,0.20,WeatherDisplay:10.37,2013-05-26 23:35:00,
2013-05-26 19:40:00,52.9,38.1,29.88,West,270,6.9,6.9,57,0.00,CLR,,0.20,WeatherDisplay:10.37,2013-05-26 23:40:00,
2013-05-26 19:45:00,52.7,37.9,29.88,NW,318,3.0,7.0,57,0.00,CLR,,0.20,WeatherDisplay:10.37,2013-05-26 23:45:00,
2013-05-26 19:50:00,52.3,38.0,29.88,NE,45,4.6,4.6,58,0.00,CLR,,0.20,WeatherDisplay:10.37,2013-05-26 23:50:00,
2013-05-26 19:55:00,52.2,38.3,29.88,West,270,10.4,10.4,59,0.00,CLR,,0.20,WeatherDisplay:10.37,2013-05-26 23:55:00,
2013-05-26 20:00:00,52.0,37.7,29.88,North,5,3.0,6.0,58,0.00,CLR,,0.20,WeatherDisplay:10.37,2013-05-27 00:00:00,
2013-05-26 20:05:00,51.6,37.7,29.89,NE,45,4.2,4.2,59,0.00,CLR,,0.20,WeatherDisplay:10.37,2013-05-27 00:05:00,
2013-05-26 20:10:00,51.4,38.0,29.89,North,11,2.0,5.0,60,0.00,CLR,,0.20,WeatherDisplay:10.37,2013-05-27 00:10:00,
2013-05-26 20:15:00,51.3,37.9,29.90,North,355,2.0,7.0,60,0.00,CLR,,0.20,WeatherDisplay:10.37,2013-05-27 00:15:00,
2013-05-26 20:20:00,51.1,37.7,29.90,West,270,4.2,4.2,60,0.00,CLR,,0.20,WeatherDisplay:10.37,2013-05-27 00:20:00,
2013-05-26 20:25:00,51.1,37.7,29.90,NNW,344,3.0,6.0,60,0.00,CLR,,0.20,WeatherDisplay:10.37,2013-05-27 00:25:00,
2013-05-26 20:30:00,50.7,37.3,29.89,NE,45,4.6,4.6,60,0.00,CLR,,0.20,WeatherDisplay:10.37,2013-05-27 00:30:00,
2013-05-26 20:35:00,50.7,37.3,29.89,ENE,68,6.9,6.9,60,0.00,CLR,,0.20,WeatherDisplay:10.37,2013-05-27 00:35:00,
2013-05-26 20:40:00,50.6,37.3,29.90,NNW,339,3.0,8.0,60,0.00,CLR,,0.20,WeatherDisplay:10.37,2013-05-27 00:40:00,
2013-05-26 20:45:00,50.5,37.5,29.90,NW,315,4.6,4.6,61,0.00,CLR,,0.20,WeatherDisplay:10.37,2013-05-27 00:45:00,
2013-05-26 20:50:00,50.2,37.3,29.90,NNE,22,13.8,13.8,61,0.00,CLR,,0.20,WeatherDisplay:10.37,2013-05-27 00:50:00,
2013-05-26 20:55:00,50.2,37.3,29.90,NW,315,9.2,9.2,61,0.00,CLR,,0.20,WeatherDisplay:10.37,2013-05-27 00:55:00,
2013-05-26 21:00:00,50.1,37.2,29.90,NW,325,5.0,10.0,61,0.00,CLR,,0.20,WeatherDisplay:10.37,2013-05-27 01:00:00,
2013-05-26 21:05:00,49.8,37.3,29.91,NE,45,4.6,4.6,62,0.00,CLR,,0.20,WeatherDisplay:10.37,2013-05-27 01:05:00,
2013-05-26 21:10:00,49.8,37.3,29.91,NW,325,2.0,5.0,62,0.00,CLR,,0.20,WeatherDisplay:10.37,2013-05-27 01:10:00,
2013-05-26 21:15:00,49.8,37.7,29.91,NNW,348,2.0,9.0,63,0.00,CLR,,0.20,WeatherDisplay:10.37,2013-05-27 01:15:00,
2013-05-26 21:20:00,49.6,37.1,29.91,WNW,292,5.8,5.8,62,0.00,CLR,,0.20,WeatherDisplay:10.37,2013-05-27 01:20:00,
2013-05-26 21:25:00,49.5,37.4,29.91,NNE,22,5.8,5.8,63,0.00,CLR,,0.20,WeatherDisplay:10.37,2013-05-27 01:25:00,
2013-05-26 21:30:00,49.3,37.2,29.92,NNE,22,2.3,0.0,63,0.00,CLR,,0.20,WeatherDisplay:10.37,2013-05-27 01:30:00,
2013-05-26 21:35:00,49.1,37.4,29.92,NW,314,3.0,5.0,64,0.00,CLR,,0.20,WeatherDisplay:10.37,2013-05-27 01:35:00,
2013-05-26 21:40:00,48.7,37.1,29.93,WNW,292,7.3,7.3,64,0.00,CLR,,0.20,WeatherDisplay:10.37,2013-05-27 01:40:00,
2013-05-26 21:45:00,48.7,37.1,29.93,SW,215,2.0,7.0,64,0.00,CLR,,0.20,WeatherDisplay:10.37,2013-05-27 01:45:00,
2013-05-26 21:50:00,48.5,36.9,29.93,West,260,2.0,3.0,64,0.00,CLR,,0.20,WeatherDisplay:10.37,2013-05-27 01:50:00,
2013-05-26 21:55:00,48.2,36.6,29.93,West,270,4.6,4.6,64,0.00,CLR,,0.20,WeatherDisplay:10.37,2013-05-27 01:55:00,
2013-05-26 22:00:00,48.0,36.8,29.93,WSW,241,2.0,5.0,65,0.00,CLR,,0.20,WeatherDisplay:10.37,2013-05-27 02:00:00,
2013-05-26 22:05:00,47.8,36.6,29.93,SW,235,2.0,5.0,65,0.00,CLR,,0.20,WeatherDisplay:10.37,2013-05-27 02:05:00,
2013-05-26 22:10:00,47.7,36.9,29.93,WNW,292,2.3,2.3,66,0.00,CLR,,0.20,WeatherDisplay:10.37,2013-05-27 02:10:00,
2013-05-26 22:15:00,47.1,36.3,29.94,WSW,248,4.2,4.2,66,0.00,CLR,,0.20,WeatherDisplay:10.37,2013-05-27 02:15:00,
2013-05-26 22:20:00,47.1,36.3,29.94,NNE,22,1.1,1.1,66,0.00,CLR,,0.20,WeatherDisplay:10.37,2013-05-27 02:20:00,
2013-05-26 22:25:00,47.0,36.2,29.94,NW,320,1.0,5.0,66,0.00,CLR,,0.20,WeatherDisplay:10.37,2013-05-27 02:25:00,
2013-05-26 22:30:00,46.8,36.4,29.94,West,275,2.0,5.0,67,0.00,CLR,,0.20,WeatherDisplay:10.37,2013-05-27 02:30:00,
2013-05-26 22:35:00,46.8,36.4,29.94,SW,233,1.0,4.0,67,0.00,CLR,,0.20,WeatherDisplay:10.37,2013-05-27 02:35:00,
2013-05-26 22:40:00,46.7,36.7,29.94,WSW,256,2.0,3.0,68,0.00,CLR,,0.20,WeatherDisplay:10.37,2013-05-27 02:40:00,
2013-05-26 22:45:00,46.4,36.4,29.94,West,262,0.0,3.0,68,0.00,CLR,,0.20,WeatherDisplay:10.37,2013-05-27 02:45:00,
2013-05-26 22:50:00,46.2,36.6,29.94,NNW,338,5.8,5.8,69,0.00,CLR,,0.20,WeatherDisplay:10.37,2013-05-27 02:50:00,
2013-05-26 22:55:00,46.2,36.2,29.95,WNW,288,0.0,6.0,68,0.00,CLR,,0.20,WeatherDisplay:10.37,2013-05-27 02:55:00,
2013-05-26 23:00:00,46.0,36.8,29.95,West,263,1.0,3.0,70,0.00,CLR,,0.20,WeatherDisplay:10.37,2013-05-27 03:00:00,
2013-05-26 23:05:00,45.7,36.5,29.95,WSW,248,2.3,2.3,70,0.00,CLR,,0.20,WeatherDisplay:10.37,2013-05-27 03:05:00,
2013-05-26 23:10:00,45.5,36.6,29.95,SW,217,0.0,4.0,71,0.00,CLR,,0.20,WeatherDisplay:10.37,2013-05-27 03:10:00,
2013-05-26 23:15:00,45.5,37.0,29.96,WNW,292,3.5,3.5,72,0.00,CLR,,0.20,WeatherDisplay:10.37,2013-05-27 03:15:00,
2013-05-26 23:20:00,45.3,36.8,29.96,WNW,293,0.0,2.0,72,0.00,CLR,,0.20,WeatherDisplay:10.37,2013-05-27 03:20:00,
2013-05-26 23:25:00,45.3,37.2,29.96,West,270,1.2,1.2,73,0.00,CLR,,0.20,WeatherDisplay:10.37,2013-05-27 03:25:00,
2013-05-26 23:30:00,44.9,36.8,29.96,NNW,336,1.0,2.0,73,0.00,CLR,,0.20,WeatherDisplay:10.37,2013-05-27 03:30:00,
2013-05-26 23:35:00,44.8,37.0,29.96,NW,315,0.0,0.0,74,0.00,CLR,,0.20,WeatherDisplay:10.37,2013-05-27 03:35:00,
2013-05-26 23:40:00,44.2,37.1,29.97,WSW,255,0.0,0.0,76,0.00,CLR,,0.20,WeatherDisplay:10.37,2013-05-27 03:40:00,
2013-05-26 23:45:00,44.1,37.0,29.97,WNW,292,2.3,2.3,76,0.00,CLR,,0.20,WeatherDisplay:10.37,2013-05-27 03:45:00,
2013-05-26 23:50:00,44.2,37.1,29.97,NE,45,1.1,1.5,76,0.00,CLR,,0.20,WeatherDisplay:10.37,2013-05-27 03:50:00,
2013-05-26 23:55:00,44.2,37.1,29.97,NW,304,0.0,1.0,76,0.00,CLR,,0.20,WeatherDisplay:10.37,2013-05-27 03:55:00,